Weather History for KBMQ - February, 2012

Change the Weather History Date:

Monday, February 20, 2012

  Actual Average Record
Temperature  
Mean Temperature 57 °F -  
Max Temperature 68 °F 60 °F 78 °F (2014)
Min Temperature 46 °F 41 °F 32 °F (2006)
Degree Days  
Heating Degree Days 8    
Growing Degree Days 7 (Base 50)    
Moisture  
Dew Point 48 °F    
Average Humidity 80    
Maximum Humidity 93    
Minimum Humidity 52    
Precipitation  
Precipitation 0.00 in - - ()
Sea Level Pressure  
Sea Level Pressure 30.03 in    
Wind  
Wind Speed 7 mph (South)    
Max Wind Speed 14 mph    
Max Gust Speed 22 mph    
Visibility 8 miles    
Events      
Averages and records for this station are not official NWS values.
T = Trace of Precipitation, MM = Missing Value Source: NWS Daily Summary

Daily Weather History Graph

Daily Weather History Graph

Search for Another Location

Airport or City:

Trip Planner

Search our weather history database for the weather conditions in past years. The results will help you decide how hot, cold, wet, or windy it might be!

Date:

Astronomy

Feb. 20, 2012 Rise Set
Actual Time 7:09 AM CST 6:24 PM CST
Civil Twilight 6:44 AM CST 6:48 PM CST
Nautical Twilight 6:16 AM CST 7:17 PM CST
Astronomical Twilight 5:48 AM CST 7:45 PM CST
Moon 6:04 AM CST (2/20) 5:31 PM CST (2/20)
Length of Visible Light 12h 04m
Length of Day
11h 15m
Waning Crescent, 1% of the Moon is Illuminated
Feb 20
Waning Crescent
Feb 21
New
Feb 29
First Quarter
Mar 8
Full
Mar 14
Last Quarter

Hourly Weather History & Observations

Time (CST) Temp. Windchill Dew Point Humidity Pressure Visibility Wind Dir Wind Speed Gust Speed Precip Events Conditions
12:53 AM 48.0 °F - 43.0 °F 83% 30.01 in 8.0 mi SE 6.9 mph - N/A   Clear
1:53 AM 46.9 °F - 44.1 °F 90% 30.00 in 7.0 mi SSE 6.9 mph - N/A   Clear
2:20 AM 46.4 °F 42.9 °F 44.6 °F 93% 30.01 in 6.0 mi South 6.9 mph - N/A   Partly Cloudy
2:36 AM 46.4 °F 42.9 °F 44.6 °F 93% 30.00 in 6.0 mi SSE 6.9 mph - N/A   Mostly Cloudy
2:53 AM 46.9 °F - 44.1 °F 90% 29.99 in 5.0 mi SSE 5.8 mph - N/A   Mostly Cloudy
3:11 AM 46.4 °F 42.9 °F 44.6 °F 93% 30.01 in 5.0 mi SSE 6.9 mph - N/A   Overcast
3:53 AM 46.9 °F - 44.1 °F 90% 29.98 in 6.0 mi SSE 6.9 mph - N/A   Overcast
4:53 AM 46.9 °F - 44.1 °F 90% 29.98 in 6.0 mi SSE 5.8 mph - N/A   Overcast
5:05 AM 46.4 °F 42.9 °F 44.6 °F 93% 29.99 in 6.0 mi South 6.9 mph - N/A   Overcast
5:53 AM 48.0 °F - 45.0 °F 89% 29.99 in 7.0 mi South 6.9 mph - N/A   Overcast
6:03 AM 48.2 °F - 44.6 °F 87% 30.01 in 7.0 mi South 8.1 mph - N/A   Overcast
6:53 AM 48.0 °F - 46.0 °F 93% 30.01 in 7.0 mi SSE 8.1 mph - N/A   Overcast
7:53 AM 48.9 °F - 46.0 °F 90% 30.06 in 5.0 mi South 4.6 mph - N/A   Overcast
8:53 AM 50.0 °F - 46.0 °F 86% 30.09 in 5.0 mi SSE 4.6 mph - N/A   Overcast
9:51 AM 51.8 °F - 48.2 °F 88% 30.09 in 7.0 mi South 8.1 mph - N/A   Overcast
9:53 AM 52.0 °F - 48.0 °F 86% 30.08 in 7.0 mi South 9.2 mph - N/A   Overcast
10:04 AM 53.6 °F - 48.2 °F 82% 30.09 in 8.0 mi South 6.9 mph - N/A   Overcast
10:53 AM 55.9 °F - 50.0 °F 80% 30.09 in 9.0 mi SSW 10.4 mph 17.3 mph N/A   Overcast
11:53 AM 59.0 °F - 51.1 °F 75% 30.06 in 10.0 mi SSW 12.7 mph 19.6 mph N/A   Overcast
12:53 PM 61.0 °F - 51.1 °F 70% 30.03 in 10.0 mi South 11.5 mph - N/A   Mostly Cloudy
1:53 PM 66.0 °F - 52.0 °F 60% 29.99 in 10.0 mi South 13.8 mph 21.9 mph N/A   Scattered Clouds
2:53 PM 68.0 °F - 51.1 °F 55% 29.97 in 10.0 mi SSW 11.5 mph 18.4 mph N/A   Clear
3:53 PM 68.0 °F - 51.1 °F 55% 29.97 in 10.0 mi SSW 11.5 mph 18.4 mph N/A   Clear
4:53 PM 68.0 °F - 50.0 °F 52% 29.96 in 10.0 mi SSW 12.7 mph 19.6 mph N/A   Clear
5:53 PM 66.9 °F - 48.9 °F 52% 29.99 in 10.0 mi SSW 9.2 mph - N/A   Clear
6:53 PM 62.1 °F - 50.0 °F 65% 30.01 in 10.0 mi South 3.5 mph - N/A   Clear
7:53 PM 60.1 °F - 51.1 °F 72% 30.05 in 10.0 mi South 3.5 mph - N/A   Clear
8:53 PM 55.9 °F - 50.0 °F 80% 30.07 in 10.0 mi Calm Calm - N/A   Clear
10:53 PM 55.9 °F - 51.1 °F 84% 30.14 in 10.0 mi West 4.6 mph - N/A   Partly Cloudy
11:53 PM 52.0 °F - 48.0 °F 86% 30.14 in 6.0 mi Calm Calm - N/A   Clear